Theta_e
326 328 336 339 339 337 330 328 330 329 327 321 315 312 309 309 307 307 307 308 308 308 309 310 311 311 311 310 309 318 321 327 329 330 330 327 326 326 326 327 326 326 325
330 327 332 336 336 331 328 330 330 328 322 314 312 309 308 307 307 307 308 308 310 311 311 311 311 311 311 311 310 324 328 328 328 329 329 326 324 323 324 324 323 322 322
332 327 329 333 331 328 330 331 329 322 314 313 309 308 307 307 308 308 310 311 311 310 309 309 309 309 311 316 318 321 325 324 328 329 328 324 322 320 318 320 321 322 322
327 327 329 330 328 331 331 330 323 314 313 310 308 307 307 308 309 312 311 311 309 309 309 310 310 310 310 320 319 317 319 326 327 328 326 323 313 314 316 317 319 321 322
326 328 328 328 331 332 330 324 315 313 311 308 308 307 308 310 312 311 310 309 310 310 311 312 313 313 313 314 317 316 318 323 325 326 321 317 310 309 314 318 319 318 317
327 327 328 331 332 331 326 316 314 313 309 308 308 309 311 312 310 310 309 310 311 311 312 313 313 313 313 314 314 315 317 318 320 319 317 316 316 310 310 310 314 316 316
329 329 331 332 331 327 318 315 314 311 308 308 309 311 312 310 310 309 310 310 311 312 312 313 313 313 313 314 315 314 318 318 318 319 319 318 314 310 309 310 310 310 312
331 332 332 331 328 324 316 315 312 310 308 309 311 312 310 310 310 310 310 310 311 312 313 313 313 313 315 315 315 315 314 315 316 315 316 315 314 313 309 308 311 311 310
333 332 330 324 327 319 316 313 311 309 310 311 313 312 311 310 310 310 310 311 312 312 312 313 312 314 316 316 316 316 315 314 314 313 314 313 312 312 311 307 308 310 312
328 328 323 326 323 317 315 311 311 309 311 314 312 313 313 312 311 312 311 311 312 313 313 313 313 314 316 316 316 316 316 315 314 313 313 313 313 312 311 309 306 307 308
329 325 328 328 320 316 313 312 310 312 316 313 317 323 318 320 323 315 312 312 313 313 316 317 316 316 316 316 315 315 314 313 312 313 312 312 312 311 310 309 307 306 305
326 325 329 323 318 315 312 311 313 317 315 318 325 325 323 324 322 321 320 319 319 319 319 317 317 317 317 315 314 314 313 312 311 310 308 311 311 310 308 308 307 306 304
323 324 325 327 320 313 311 316 318 319 320 320 322 327 325 322 323 325 322 322 320 320 318 317 318 317 317 314 314 313 312 312 310 309 309 310 309 308 307 307 307 305 304
326 329 328 326 321 313 314 321 324 326 324 327 325 328 326 324 325 325 323 322 320 319 319 318 318 318 316 315 314 313 311 309 308 306 305 306 307 306 307 307 306 305 304
331 330 328 327 324 321 325 328 326 328 326 324 322 323 325 327 327 324 322 321 320 319 318 318 318 317 315 313 311 309 306 305 306 303 304 304 304 303 307 306 305 304 303
331 331 329 323 324 325 327 327 330 328 325 321 322 324 328 327 326 323 319 320 319 319 318 318 316 314 312 310 307 303 303 304 303 301 302 303 303 303 306 306 304 303 304
329 324 322 321 323 326 329 328 328 325 322 323 322 320 322 324 322 322 321 321 319 318 318 316 313 311 310 308 303 301 302 302 301 300 302 302 302 305 306 305 303 303 303
324 316 313 322 326 329 328 326 325 321 320 319 318 319 321 320 321 321 321 319 318 317 315 311 311 310 308 304 300 299 299 300 299 300 301 302 303 305 304 303 303 302 301
326 320 321 327 327 327 325 323 323 320 319 318 320 319 321 322 321 320 318 316 315 313 312 311 310 308 305 302 300 299 299 298 300 301 301 301 304 302 301 300 300 300 299
326 323 325 327 325 325 324 323 320 319 319 321 320 320 321 320 318 313 312 312 312 311 311 309 308 306 303 301 301 300 299 298 300 300 301 301 301 300 300 299 299 298 297
327 326 325 324 325 325 323 323 320 320 322 321 321 319 318 313 312 312 312 312 311 310 309 308 305 303 301 301 301 301 299 299 297 299 299 299 298 297 297 296 296 295 295
328 328 328 328 327 327 323 323 322 323 321 320 319 316 312 312 312 312 313 312 311 310 309 306 303 302 301 302 302 301 299 298 298 297 297 297 296 296 295 295 294 293 293
329 329 330 329 327 326 324 325 324 321 318 317 314 313 313 313 312 312 312 311 309 306 304 304 302 302 302 302 302 301 299 298 298 297 297 296 296 295 295 294 293 293 292
331 331 331 329 329 327 327 326 322 319 316 314 315 315 313 313 313 311 308 306 305 305 305 304 303 303 302 302 302 301 300 299 298 297 296 295 295 294 293 294 293 293 292
332 332 330 329 327 326 327 324 321 318 318 317 316 315 314 313 309 307 306 306 306 305 305 304 303 301 302 301 301 301 299 298 298 297 297 295 295 293 293 293 292 292 291
331 330 330 329 326 326 326 323 320 320 319 317 316 314 313 310 310 307 306 305 305 304 303 301 297 299 299 299 299 299 298 298 298 297 297 295 294 294 293 292 291 290 290
Wind_Speed
27 25 25 25 25 22 21 20 18 16 15 14 13 13 14 16 18 19 18 18 18 18 17 18 18 19 19 20 20 19 18 18 17 17 17 18 16 13 11 11 10 10 10
34 29 28 27 26 23 20 19 17 16 15 14 13 15 16 17 18 18 18 18 18 18 19 20 21 21 21 22 22 20 18 15 13 14 18 20 19 16 13 12 10 9 10
35 34 31 29 26 25 21 18 16 16 15 14 14 16 17 17 18 17 17 19 20 21 24 24 26 26 24 25 24 20 15 13 14 14 13 19 19 15 13 13 13 13 13
37 36 33 30 26 24 21 18 16 16 14 16 16 16 17 17 16 17 18 21 22 24 25 26 28 28 26 23 23 22 23 20 14 14 16 19 17 13 14 14 14 13 13
36 35 33 29 27 23 21 18 17 16 15 17 17 16 15 16 17 19 20 22 23 24 24 25 25 26 26 22 18 19 27 21 16 13 13 15 18 17 14 13 13 12 11
38 35 31 27 24 22 20 18 17 15 17 17 17 16 16 17 19 20 21 21 21 22 22 21 22 22 23 23 21 15 18 23 12 14 13 12 22 20 17 14 13 12 11
37 36 30 27 24 22 19 17 17 17 17 17 15 16 17 19 20 19 19 18 19 19 18 18 18 18 19 22 21 18 14 20 18 12 12 16 19 22 19 16 14 12 12
29 31 28 25 20 14 17 17 17 17 17 16 16 16 18 19 19 19 17 17 15 15 15 15 14 15 16 17 17 16 19 20 16 18 17 19 20 20 21 16 13 13 13
38 28 26 29 18 18 18 17 17 17 17 17 17 17 17 17 17 15 14 13 11 11 11 11 11 11 13 14 15 16 16 12 13 17 15 18 20 21 22 19 14 12 12
23 17 26 22 19 20 18 15 17 17 18 19 19 18 17 15 13 11 9 8 8 8 8 8 8 7 9 11 14 16 18 10 8 12 13 16 19 21 21 20 16 12 12
28 30 24 17 17 17 19 18 18 19 20 20 19 16 13 13 12 10 6 5 6 7 9 10 7 6 8 14 17 19 18 17 10 11 15 17 19 19 23 21 19 15 12
28 23 22 17 17 18 18 18 19 20 21 20 17 14 9 8 5 5 6 6 9 9 7 9 4 6 11 15 18 19 19 20 21 16 19 15 16 21 22 22 20 18 14
26 26 21 19 16 17 20 22 22 22 21 16 14 15 8 5 3 3 6 7 7 7 6 2 2 7 10 10 11 13 14 16 21 17 16 17 19 19 22 18 19 17 15
32 26 26 19 18 20 21 22 21 18 18 13 11 10 10 9 9 7 8 7 6 7 5 6 7 8 11 13 9 13 16 20 19 17 15 16 17 20 18 17 17 17 17
32 32 28 24 21 19 23 21 18 18 14 12 13 15 13 12 12 11 7 6 8 9 9 7 10 13 14 14 17 18 20 18 18 17 14 17 20 20 15 14 17 19 19
33 30 27 26 21 23 18 22 24 22 15 13 15 13 12 11 10 9 10 13 12 11 8 12 13 14 13 16 20 20 14 15 18 20 14 17 18 19 16 15 18 17 15
23 23 30 26 28 23 25 23 19 14 17 15 8 5 8 12 13 12 10 9 10 10 13 13 14 15 17 20 18 12 11 17 20 14 11 13 16 14 14 15 16 16 18
18 22 28 32 28 25 25 24 20 20 16 11 6 3 7 12 12 9 9 8 7 11 13 16 16 16 19 18 20 17 18 19 19 13 13 10 17 11 10 10 12 15 17
16 23 28 33 28 25 23 22 22 21 14 9 10 6 7 11 9 7 5 6 7 12 13 14 16 20 22 23 24 24 23 18 14 15 14 8 2 1 7 8 13 17 19
22 22 28 28 23 20 20 25 25 19 12 10 10 7 8 8 6 5 6 6 9 10 11 13 18 22 24 26 25 23 24 21 6 12 8 8 7 9 10 14 18 20 22
25 28 28 27 25 27 26 29 23 15 13 11 8 10 9 7 6 6 8 8 8 7 11 14 17 20 24 24 26 28 31 11 22 9 12 15 17 17 19 20 20 20 18
32 36 30 28 23 26 22 19 16 15 12 10 11 11 9 7 8 8 9 11 13 14 16 18 18 20 20 21 23 28 17 27 8 19 18 22 20 16 16 15 16 16 17
36 35 29 22 19 22 20 14 15 12 14 15 12 9 10 10 8 7 10 13 14 15 17 18 18 18 18 21 25 21 15 8 30 21 24 17 22 23 22 19 17 13 15
32 28 22 18 19 16 21 22 17 16 16 11 6 10 11 9 6 8 10 12 13 14 16 16 15 19 22 24 23 21 21 24 28 29 11 21 18 21 22 23 24 24 27
24 25 21 19 14 23 21 23 17 13 13 14 16 14 10 6 3 2 6 10 12 15 17 20 22 23 18 19 23 23 26 27 26 27 31 24 26 25 24 22 25 29 34
24 24 21 20 20 23 24 23 16 18 23 19 21 17 11 8 10 10 12 14 16 19 21 25 23 21 22 23 24 28 28 27 26 23 30 29 26 28 26 25 24 29 22
Wind_Direction
158 156 154 151 147 146 142 135 129 122 115 106 97 94 94 91 90 85 80 74 70 67 63 61 59 59 60 63 67 70 65 62 49 51 52 49 51 47 37 33 26 21 20
155 162 156 152 148 146 142 136 129 122 115 106 102 102 99 95 88 83 76 73 69 67 67 66 66 65 65 69 75 80 67 53 43 50 52 43 42 36 36 35 32 31 30
159 159 155 152 150 146 144 137 130 123 117 109 107 106 101 95 89 84 79 77 77 78 76 74 72 70 72 77 78 78 61 49 57 68 34 26 21 28 35 36 30 22 25
158 155 152 152 150 146 142 137 133 123 117 117 112 108 103 97 90 87 89 89 87 84 80 77 74 71 72 81 76 67 52 59 58 55 38 21 4 18 27 30 32 26 22
157 153 151 151 149 146 141 138 130 120 121 119 117 112 104 98 97 97 94 94 93 88 83 79 74 71 70 74 77 74 60 66 49 58 27 7 21 22 21 25 23 23 24
159 152 150 149 148 144 140 133 127 122 124 117 117 112 108 105 102 99 99 97 92 87 82 77 72 68 62 59 64 75 72 46 41 25 12 15 15 11 13 17 16 14 14
152 150 149 147 144 139 132 134 127 126 121 119 117 115 112 108 106 105 101 97 90 86 82 75 68 65 58 56 53 59 71 33 42 31 20 11 19 14 5 5 4 6 5
150 140 142 136 128 139 142 134 128 125 124 122 119 116 113 112 110 106 102 96 90 84 76 67 60 54 49 50 52 41 52 43 36 16 11 1 3 355 358 0 353 351 350
144 133 126 124 144 152 141 134 128 129 126 125 121 116 114 110 108 106 102 95 91 82 72 62 54 45 43 30 31 24 25 39 29 11 347 345 344 344 343 350 344 343 340
106 133 113 146 147 145 141 137 135 133 130 125 119 107 102 102 100 95 99 95 86 81 67 47 50 38 41 26 14 8 3 16 14 358 344 340 335 334 335 340 337 333 328
127 132 148 154 160 151 144 139 137 134 130 121 117 118 115 110 101 82 90 82 68 60 62 56 44 17 8 0 1 351 357 1 7 337 328 329 331 334 331 333 336 329 323
132 145 155 165 163 154 141 138 137 133 128 128 124 125 112 107 96 69 68 85 75 64 73 57 26 345 334 358 358 353 355 352 349 356 341 328 327 332 333 330 334 331 326
142 160 151 156 161 155 147 141 136 135 133 140 134 132 132 136 117 138 88 69 71 77 77 109 313 334 351 2 6 353 339 335 335 339 341 328 321 325 330 332 335 335 332
154 157 157 151 138 145 147 141 140 143 141 147 150 151 171 171 178 145 125 121 147 167 191 257 269 298 308 327 323 322 325 326 327 333 330 330 324 320 324 324 334 331 333
153 160 153 155 153 144 143 146 148 159 154 171 180 187 178 179 168 167 164 194 209 225 248 272 276 292 313 322 323 324 327 324 321 336 321 327 328 326 317 327 331 335 339
161 168 170 169 160 157 170 175 168 170 177 189 195 193 189 195 198 209 227 232 234 249 256 294 294 311 319 321 325 331 338 315 322 329 315 321 315 311 301 316 325 324 343
171 169 171 161 163 171 170 173 183 183 190 197 200 213 220 224 222 251 247 230 241 257 292 298 305 309 311 317 327 346 323 314 326 326 319 324 324 321 309 313 314 317 318
167 163 162 162 170 180 183 189 187 189 187 198 199 269 239 225 223 221 227 235 256 283 290 299 307 309 322 329 332 329 322 325 332 335 311 314 326 313 301 301 306 310 315
180 169 160 170 180 187 194 196 195 197 201 241 303 291 201 198 204 201 231 266 278 288 292 302 310 317 326 331 330 330 332 337 337 326 343 291 65 342 337 318 307 312 317
185 181 176 183 185 188 197 193 200 211 232 267 286 256 192 188 195 227 254 278 284 282 284 298 314 321 323 326 324 328 332 339 348 328 324 328 316 326 317 317 318 318 321
196 185 191 189 198 190 195 195 208 229 253 252 225 188 183 198 212 235 266 292 308 286 299 306 310 313 321 321 326 328 332 327 337 290 311 314 319 317 315 318 320 322 324
184 188 190 194 196 192 199 208 224 237 226 199 192 201 210 209 210 211 241 265 280 288 297 307 311 313 317 322 324 325 329 326 358 315 303 298 309 315 321 327 326 323 325
187 193 195 200 209 206 202 191 216 201 184 197 192 217 205 215 237 275 284 291 295 303 310 314 316 318 313 310 312 314 321 298 316 317 313 303 302 302 304 307 312 316 316
196 198 205 209 215 208 183 198 213 203 198 209 208 218 210 227 275 292 303 310 308 310 307 309 310 306 306 306 305 298 291 294 304 312 292 294 295 298 299 286 291 300 311
201 202 222 219 219 187 185 201 206 204 209 212 207 214 207 246 303 316 259 260 263 277 284 293 297 301 297 302 301 298 301 300 298 297 296 294 294 298 296 289 294 299 301
209 219 219 221 204 183 183 203 211 204 208 190 191 192 197 195 203 234 248 247 264 274 283 290 291 290 293 297 301 299 300 299 300 297 289 294 294 297 292 299 299 310 310